Moscow Domodedovo, Russia

4:14 AM MSK on August 19, 2018 (GMT +0300)
Domodedovo

Weather History for UUDD - August, 2018

Change the Weather History Date:

Saturday, August 18, 2018

  Actual Average Record
Temperature  
Mean Temperature 62 °F -  
Max Temperature 75 °F - - ()
Min Temperature 50 °F - - ()
Degree Days  
Heating Degree Days 2    
Growing Degree Days 12 (Base 50)    
Moisture  
Dew Point 48 °F    
Average Humidity 59    
Maximum Humidity 88    
Minimum Humidity 34    
Precipitation  
Precipitation 0.00 in - - ()
Sea Level Pressure  
Sea Level Pressure 30.24 in    
Wind  
Wind Speed 3 mph ()    
Max Wind Speed 7 mph    
Max Gust Speed -    
Visibility 6.2 miles    
Events      
T = Trace of Precipitation, MM = Missing Value Source: Averaged Metar Reports

Daily Weather History Graph

Daily Weather History Graph

Search for Another Location

Airport or City:

Astronomy

Aug. 18, 2018 Rise Set
Actual Time 5:06 AM MSK 7:56 PM MSK
Civil Twilight 4:24 AM MSK 8:38 PM MSK
Nautical Twilight 3:29 AM MSK 9:32 PM MSK
Astronomical Twilight 2:16 AM MSK 10:44 PM MSK
Moon 1:55 PM MSK (8/18) 11:04 PM MSK (8/18)
Length of Visible Light 16h 13m
Length of Day
14h 49m
Waxing Crescent, 50% of the Moon is Illuminated
Aug 18
Waxing Crescent
Aug 26
Full
Sep 3
Last Quarter
Sep 9
New
Sep 17
First Quarter

Hourly Weather History & Observations

Time (MSK) Temp. Dew Point Humidity Pressure Visibility Wind Dir Wind Speed Gust Speed Precip Events Conditions
12:00 AM 55.4 °F 48.2 °F 77% 30.24 in - Variable 2.2 mph - N/A   Clear
12:30 AM 57.2 °F 50.0 °F 77% 30.24 in - ENE 4.5 mph - N/A   Clear
1:00 AM 53.6 °F 48.2 °F 82% 30.24 in - ENE 2.2 mph - N/A   Clear
1:30 AM 55.4 °F 48.2 °F 77% 30.24 in - NE 2.2 mph - N/A   Clear
2:00 AM 53.6 °F 48.2 °F 82% 30.24 in - Variable 2.2 mph - N/A   Clear
2:30 AM 53.6 °F 48.2 °F 82% 30.24 in - Variable 2.2 mph - N/A   Clear
3:00 AM 51.8 °F 48.2 °F 88% 30.24 in - Calm Calm - N/A   Clear
3:30 AM 51.8 °F 48.2 °F 88% 30.24 in - Variable 2.2 mph - N/A   Clear
4:00 AM 51.8 °F 48.2 °F 88% 30.27 in - Variable 2.2 mph - N/A   Clear
4:30 AM 50.0 °F 46.4 °F 87% 30.27 in - Variable 2.2 mph - N/A   Clear
5:00 AM 50.0 °F 46.4 °F 87% 30.27 in - Variable 2.2 mph - N/A   Clear
5:30 AM 50.0 °F 46.4 °F 87% 30.27 in - Variable 2.2 mph - N/A   Clear
6:00 AM 51.8 °F 48.2 °F 88% 30.27 in - Variable 2.2 mph - N/A   Clear
6:30 AM 53.6 °F 48.2 °F 82% 30.27 in - Variable 2.2 mph - N/A   Clear
7:00 AM 55.4 °F 48.2 °F 77% 30.27 in - Variable 2.2 mph - N/A   Clear
7:30 AM 57.2 °F 50.0 °F 77% 30.27 in - Variable 2.2 mph - N/A   Clear
8:00 AM 60.8 °F 50.0 °F 68% 30.27 in - Variable 2.2 mph - N/A   Clear
9:00 AM 66.2 °F 50.0 °F 56% 30.27 in - Variable 2.2 mph - N/A   Clear
9:30 AM 68.0 °F 48.2 °F 49% 30.27 in - SSE 4.5 mph - N/A   Clear
10:00 AM 69.8 °F 48.2 °F 46% 30.27 in - SE 4.5 mph - N/A   Clear
10:30 AM 69.8 °F 48.2 °F 46% 30.27 in - ESE 6.7 mph - N/A   Clear
11:00 AM 71.6 °F 46.4 °F 41% 30.27 in - SSE 4.5 mph - N/A   Clear
11:30 AM 71.6 °F 46.4 °F 41% 30.27 in 6.2 mi ENE 4.5 mph - N/A   Scattered Clouds
12:00 PM 71.6 °F 46.4 °F 41% 30.24 in 6.2 mi NE 4.5 mph - N/A   Scattered Clouds
12:30 PM 71.6 °F 46.4 °F 41% 30.24 in - SW 6.7 mph - N/A   Clear
1:00 PM 75.2 °F 46.4 °F 36% 30.24 in - ESE 6.7 mph - N/A   Clear
1:30 PM 73.4 °F 46.4 °F 38% 30.24 in - SE 4.5 mph - N/A   Clear
2:00 PM 73.4 °F 44.6 °F 36% 30.24 in - ESE 4.5 mph - N/A   Clear
2:30 PM 73.4 °F 46.4 °F 38% 30.24 in - SE 6.7 mph - N/A   Clear
3:00 PM 73.4 °F 44.6 °F 36% 30.24 in - SE 6.7 mph - N/A   Clear
3:30 PM 75.2 °F 46.4 °F 36% 30.21 in - WSW 4.5 mph - N/A   Clear
4:00 PM 75.2 °F 44.6 °F 34% 30.21 in - East 6.7 mph - N/A   Clear
4:30 PM 75.2 °F 44.6 °F 34% 30.21 in - SE 4.5 mph - N/A   Clear
5:00 PM 75.2 °F 46.4 °F 36% 30.21 in - SSE 4.5 mph - N/A   Clear
5:30 PM 75.2 °F 44.6 °F 34% 30.21 in - East 6.7 mph - N/A   Clear
6:00 PM 73.4 °F 46.4 °F 38% 30.21 in - ESE 6.7 mph - N/A   Clear
6:30 PM 73.4 °F 46.4 °F 38% 30.21 in - ESE 6.7 mph - N/A   Clear
7:00 PM 71.6 °F 48.2 °F 43% 30.21 in - East 6.7 mph - N/A   Clear
7:30 PM 69.8 °F 50.0 °F 49% 30.21 in - ESE 4.5 mph - N/A   Clear
8:00 PM 68.0 °F 50.0 °F 52% 30.21 in - East 4.5 mph - N/A   Clear
8:30 PM 64.4 °F 50.0 °F 59% 30.21 in - ESE 4.5 mph - N/A   Clear
9:00 PM 64.4 °F 50.0 °F 59% 30.21 in - SE 4.5 mph - N/A   Clear
9:30 PM 62.6 °F 48.2 °F 59% 30.21 in - Variable 2.2 mph - N/A   Clear
10:00 PM 60.8 °F 50.0 °F 68% 30.21 in - Variable 2.2 mph - N/A   Clear
10:30 PM 60.8 °F 50.0 °F 68% 30.21 in - Variable 2.2 mph - N/A   Clear
11:00 PM 59.0 °F 50.0 °F 72% 30.21 in - Calm Calm - N/A   Clear
11:30 PM 57.2 °F 50.0 °F 77% 30.21 in - Variable 2.2 mph - N/A   Clear